Location: Unspecified
(49.2170°N, 0.0000°E)
Time: 11:06:27
(UTC+00:00)

Transit 2A - Pass Details

Date: 18 June 2019
Orbit: 600 x 959 km, 66.7° (Epoch: 16 October)

Event Time Altitude Azimuth Distance (km) Brightness Sun altitude
Rises 06:13:10 0° 310° (NW) 3,605 9.1 19.4°
Reaches altitude 10° 06:17:05 10° 333° (NNW) 2,612 8.7 20.0°
Maximum altitude 06:20:23 15° 6° (N) 2,229 8.7 20.6°
Drops below altitude 10° 06:23:36 10° 40° (NE) 2,497 9.6 21.1°
Sets 06:27:11 0° 64° (ENE) 3,352 10.7 21.6°
